To NAV CANADA Home Page Login to a new session Search on AWWS site Feedback and Comments Disclaimer Vers la page française équivalente Tips FAQ What's new on the site To the Forecasts and Observations / NOTAM section To "File a Flight Plan" website Publications and other links Update of the User's profile FIC Telephone Numbers My Weather Data Folder Route Weather Data Regional Weather Data Local Weather Data To the Forecasts and Observations / NOTAM section
Request Generated 02/24/2017 at 03:38:27 UTC . Weather information available at that time is displayed.

METAR/TAF

EARLTON/EARLTON (TIMISKAMING REGIONAL)/ON    (show WxCam)

METAR CYXR 240300Z AUTO 04005KT 9SM OVC014 M03/M05 A2991 RMK SLP142=
METAR CYXR 240200Z AUTO 03005KT 9SM BKN018 OVC034 M02/M05 A2990 RMK
SLP141=
METAR CYXR 240100Z AUTO 02004KT 9SM BKN020 BKN026 OVC030 M02/M05
A2990 RMK SLP140=

*** REMARK        : Forecast period has ended; this was the last TAF issued
*** REMARQUE : La période de prévision est échue; ceci était le dernier TAF qui a été émis
TAF CYXR 231738Z 2318/2401 34012G22KT P6SM BKN012 OVC020 TEMPO
2318/2401 SCT020 OVC040
BECMG 2322/2324 34008KT
RMK FCST BASED ON AUTO OBS. NXT FCST WILL BE ISSUED AT 241245Z=
Your time UTC time
Weather data provided by Environment Canada and NAV CANADA